Fort Lewis, WA

2:54 AM PDT on June 23, 2017 (GMT -0700)
Gray Army Air Field

Weather History for KGRF - January, 2012

Change the Weather History Date:

Sunday, January 22, 2012

  Actual Average Record
Temperature  
Mean Temperature 37 °F -  
Max Temperature 44 °F 45 °F 55 °F (2003)
Min Temperature 30 °F 34 °F 18 °F (2008)
Degree Days  
Heating Degree Days 28    
Moisture  
Dew Point 35 °F    
Average Humidity 85    
Maximum Humidity 97    
Minimum Humidity 63    
Precipitation  
Precipitation 0.09 in - - ()
Sea Level Pressure  
Sea Level Pressure 29.63 in    
Wind  
Wind Speed 9 mph (SSE)    
Max Wind Speed 16 mph    
Max Gust Speed 26 mph    
Visibility 10 miles    
Events      
Averages and records for this station are not official NWS values.
T = Trace of Precipitation, MM = Missing Value Source: NWS Daily Summary

Daily Weather History Graph

Daily Weather History Graph

Search for Another Location

Airport or City:

Trip Planner

Search our weather history database for the weather conditions in past years. The results will help you decide how hot, cold, wet, or windy it might be!

Date:

Astronomy

Jan. 22, 2012 Rise Set
Actual Time 7:46 AM PST 4:57 PM PST
Civil Twilight 7:13 AM PST 5:31 PM PST
Nautical Twilight 6:35 AM PST 6:08 PM PST
Astronomical Twilight 5:59 AM PST 6:44 PM PST
Moon 7:06 AM PST (1/22) 4:47 PM PST (1/22)
Length of Visible Light 10h 17m
Length of Day
9h 10m
Waning Crescent, 0% of the Moon is Illuminated
Jan 22
Waning Crescent
Jan 22
New
Jan 30
First Quarter
Feb 7
Full
Feb 14
Last Quarter

Hourly Weather History & Observations

Time (PST) Temp. Windchill Dew Point Humidity Pressure Visibility Wind Dir Wind Speed Gust Speed Precip Events Conditions
12:55 AM 31.1 °F 24.5 °F 29.8 °F 95% 29.89 in 10.0 mi SSE 6.9 mph - N/A   Clear
1:55 AM 31.3 °F 26.6 °F 30.6 °F 97% 29.86 in 10.0 mi SSE 4.6 mph - N/A   Clear
2:55 AM 30.6 °F 25.8 °F 29.5 °F 96% 29.85 in 10.0 mi SE 4.6 mph - N/A   Overcast
3:55 AM 33.4 °F 30.4 °F 31.6 °F 93% - 10.0 mi SE 3.5 mph - N/A   Mostly Cloudy
4:55 AM 34.2 °F 29.0 °F 31.8 °F 91% 29.78 in 10.0 mi SE 5.8 mph - N/A   Scattered Clouds
5:55 AM 35.6 °F 30.7 °F 31.8 °F 86% - 10.0 mi East 5.8 mph - N/A   Clear
6:55 AM 39.9 °F 32.9 °F 31.3 °F 71% 29.68 in 10.0 mi East 11.5 mph - N/A   Mostly Cloudy
7:55 AM 41.2 °F 37.3 °F 30.9 °F 67% 29.66 in 10.0 mi ESE 5.8 mph - N/A   Scattered Clouds
8:41 AM 39.2 °F 32.5 °F 32.0 °F 75% 29.64 in 10.0 mi ESE 10.4 mph - N/A   Mostly Cloudy
8:55 AM 40.8 °F 34.1 °F 31.5 °F 69% 29.62 in 10.0 mi ESE 11.5 mph - N/A   Mostly Cloudy
8:59 AM 41.0 °F 34.3 °F 32.0 °F 70% 29.61 in 10.0 mi ESE 11.5 mph - N/A   Scattered Clouds
9:55 AM 42.1 °F 36.1 °F 31.6 °F 67% 29.55 in 10.0 mi East 10.4 mph - N/A   Partly Cloudy
10:55 AM 43.7 °F 39.1 °F 31.6 °F 63% 29.50 in 10.0 mi East 8.1 mph - N/A   Overcast
11:55 AM 42.3 °F 37.9 °F 33.3 °F 70% 29.47 in 10.0 mi SW 6.9 mph - N/A   Overcast
12:08 PM 41.0 °F 36.4 °F 33.8 °F 76% 29.47 in 10.0 mi West 6.9 mph - N/A   Overcast
12:30 PM 39.2 °F 35.9 °F 33.8 °F 81% 29.45 in 10.0 mi NE 4.6 mph - N/A   Overcast
12:55 PM 42.3 °F 35.9 °F 35.8 °F 78% 29.43 in 10.0 mi SE 11.5 mph 17.3 mph 0.01 in   Overcast
1:25 PM 42.8 °F 35.1 °F 35.6 °F 76% 29.44 in 10.0 mi SSE 16.1 mph 25.3 mph N/A   Overcast
1:55 PM 43.7 °F 38.1 °F 37.4 °F 78% 29.46 in 10.0 mi South 10.4 mph - 0.02 in   Overcast
2:08 PM 44.6 °F 39.2 °F 37.4 °F 76% 29.47 in 10.0 mi South 10.4 mph - N/A   Light Drizzle
2:41 PM 42.8 °F 38.0 °F 39.2 °F 87% 29.51 in 10.0 mi South 8.1 mph - N/A   Light Drizzle
2:55 PM 42.6 °F 36.3 °F 39.6 °F 89% 29.52 in 10.0 mi South 11.5 mph - 0.03 in   Overcast
2:59 PM 42.8 °F 36.6 °F 39.2 °F 87% 29.53 in 10.0 mi South 11.5 mph - N/A   Overcast
3:13 PM 42.8 °F 36.6 °F 39.2 °F 87% 29.54 in 10.0 mi South 11.5 mph - N/A   Overcast
3:25 PM 42.8 °F 36.2 °F 39.2 °F 87% 29.55 in 9.0 mi South 12.7 mph 21.9 mph N/A   Overcast
3:33 PM 42.8 °F 35.4 °F 39.2 °F 87% 29.56 in 9.0 mi South 15.0 mph 20.7 mph N/A   Overcast
3:55 PM 41.5 °F 33.5 °F 39.2 °F 91% 29.57 in 10.0 mi SSE 16.1 mph - 0.01 in   Overcast
3:58 PM 41.0 °F 33.9 °F 39.2 °F 93% 29.57 in 10.0 mi SSE 12.7 mph - N/A   Overcast
4:08 PM 41.0 °F 33.1 °F 39.2 °F 93% 29.58 in 10.0 mi SSE 15.0 mph - N/A   Mostly Cloudy
4:33 PM 41.0 °F 35.8 °F 39.2 °F 93% 29.60 in 10.0 mi SSE 8.1 mph - N/A   Mostly Cloudy
4:55 PM 41.4 °F 36.8 °F 38.1 °F 88% - 10.0 mi SE 6.9 mph - N/A   Overcast
5:55 PM 40.3 °F 33.4 °F 36.9 °F 88% 29.64 in 10.0 mi SSE 11.5 mph - N/A   Mostly Cloudy
6:00 PM 41.0 °F 34.7 °F 37.4 °F 87% 29.64 in 10.0 mi SSE 10.4 mph - N/A   Light Drizzle
6:01 PM 41.0 °F 34.7 °F 37.4 °F 87% 29.65 in 10.0 mi SSE 10.4 mph - N/A   Light Drizzle
6:21 PM 41.0 °F 34.7 °F 37.4 °F 87% 29.66 in 10.0 mi South 10.4 mph 26.5 mph N/A   Overcast
6:48 PM 41.0 °F 33.5 °F 37.4 °F 87% 29.68 in 10.0 mi South 13.8 mph 21.9 mph N/A   Mostly Cloudy
6:55 PM 40.8 °F 33.7 °F 37.6 °F 88% 29.68 in 10.0 mi South 12.7 mph 21.9 mph 0.02 in   Scattered Clouds
7:55 PM 38.1 °F 32.9 °F 36.3 °F 93% 29.73 in 10.0 mi SSE 6.9 mph - N/A   Clear
8:55 PM 36.9 °F 30.1 °F 35.4 °F 95% 29.76 in 10.0 mi SSE 9.2 mph - N/A   Clear
9:55 PM 35.1 °F 27.9 °F 34.2 °F 97% 29.79 in 10.0 mi SSE 9.2 mph - N/A   Clear
10:14 PM 37.4 °F 32.1 °F 35.6 °F 93% 29.81 in 10.0 mi South 6.9 mph - N/A   Mostly Cloudy
10:33 PM 39.2 °F 33.6 °F 37.4 °F 93% 29.81 in 10.0 mi South 8.1 mph - N/A   Mostly Cloudy
10:55 PM 37.2 °F 31.9 °F 35.1 °F 92% 29.82 in 10.0 mi SSE 6.9 mph - 0.00 in   Partly Cloudy
11:55 PM 34.3 °F 27.0 °F 33.4 °F 97% 29.83 in 10.0 mi SSE 9.2 mph - N/A   Mostly Cloudy